UAE59U OMDB-OBBI

Flight info

Callsign UAE59U
Flight time 0h 50m
Altitude 26000
Route NABIX P699 ORMID Y856 ALKAN/N0374F180 Y856 SOLOB/N0364F160 Y856 ORDIG
Aircraft A343/H-SDE2E3FGHIJ4J5M1RWXY/LB1D1

Departure

Time 2026-05-04 10:26
Airport Dubai International Airport (OMDB)

Arrival

Time 2026-05-04 11:17
Airport Bahrain International Airport (OBBI)
Time Latitude Longitude Altitude Speed Heading
2026-05-04 09:44 25.23937 55.38132 18 ft 0 kts 212°
2026-05-04 10:10 25.23943 55.38136 18 ft 4 kts 211°
2026-05-04 10:10 25.23955 55.38144 19 ft 4 kts 211°
2026-05-04 10:10 25.23978 55.38160 20 ft 4 kts 211°
2026-05-04 10:10 25.24000 55.38170 20 ft 4 kts 168°
2026-05-04 10:11 25.24022 55.38157 21 ft 4 kts 131°
2026-05-04 10:11 25.24032 55.38142 19 ft 1 kts 122°
2026-05-04 10:11 25.24033 55.38140 19 ft 0 kts 122°
2026-05-04 10:17 25.24032 55.38141 17 ft 1 kts 122°
2026-05-04 10:19 25.23890 55.38576 28 ft 11 kts 105°
2026-05-04 10:19 25.23839 55.38680 28 ft 18 kts 121°
2026-05-04 10:19 25.23774 55.38793 31 ft 17 kts 122°
2026-05-04 10:19 25.23749 55.38836 33 ft 17 kts 122°
2026-05-04 10:20 25.23727 55.38874 34 ft 16 kts 122°
2026-05-04 10:20 25.23674 55.38978 37 ft 15 kts 121°
2026-05-04 10:20 25.23621 55.39074 40 ft 14 kts 121°
2026-05-04 10:21 25.23567 55.39169 44 ft 15 kts 121°
2026-05-04 10:21 25.23516 55.39262 47 ft 14 kts 121°
2026-05-04 10:21 25.23523 55.39343 49 ft 2 kts 46°
2026-05-04 10:21 25.23523 55.39344 49 ft 0 kts 46°
2026-05-04 10:25 25.23652 55.39380 47 ft 0 kts 300°
2026-05-04 10:25 25.23659 55.39367 47 ft 4 kts 300°
2026-05-04 10:25 25.23713 55.39269 44 ft 38 kts 302°
2026-05-04 10:25 25.23969 55.38808 29 ft 100 kts 301°
2026-05-04 10:26 25.24425 55.37985 16 ft 148 kts 301°
2026-05-04 10:26 25.25029 55.36902 163 ft 176 kts 299°
2026-05-04 10:26 25.25681 55.35761 857 ft 175 kts 302°
2026-05-04 10:26 25.26334 55.34603 1359 ft 192 kts 301°
2026-05-04 10:27 25.27067 55.33314 1967 ft 197 kts 301°
2026-05-04 10:27 25.27813 55.32048 2812 ft 201 kts 304°
2026-05-04 10:27 25.28650 55.30727 3404 ft 218 kts 306°
2026-05-04 10:27 25.29378 55.29251 4221 ft 225 kts 283°
2026-05-04 10:28 25.29112 55.27528 4952 ft 240 kts 246°
2026-05-04 10:28 25.28326 55.25818 5593 ft 250 kts 245°
2026-05-04 10:28 25.27489 55.24146 6575 ft 247 kts 243°
2026-05-04 10:28 25.26594 55.22567 7484 ft 245 kts 239°
2026-05-04 10:29 25.25602 55.21043 8383 ft 245 kts 237°
2026-05-04 10:29 25.24876 55.19354 9095 ft 246 kts 256°
2026-05-04 10:29 25.24301 55.17545 9864 ft 251 kts 254°
2026-05-04 10:29 25.23870 55.15672 10557 ft 257 kts 264°
2026-05-04 10:30 25.23604 55.13643 10928 ft 277 kts 265°
2026-05-04 10:30 25.23341 55.11454 11268 ft 298 kts 265°
2026-05-04 10:30 25.23045 55.09111 11607 ft 317 kts 264°
2026-05-04 10:30 25.22718 55.06630 11928 ft 335 kts 264°
2026-05-04 10:31 25.22370 55.04053 12248 ft 351 kts 263°
2026-05-04 10:31 25.22000 55.01346 12712 ft 361 kts 263°
2026-05-04 10:32 25.20389 54.85410 16161 ft 380 kts 268°
2026-05-04 10:33 25.20198 54.82522 16806 ft 384 kts 268°
2026-05-04 10:33 25.19994 54.79572 17461 ft 387 kts 267°
2026-05-04 10:33 25.19839 54.76596 18111 ft 390 kts 271°
2026-05-04 10:33 25.19932 54.73602 18672 ft 392 kts 274°
2026-05-04 10:34 25.20108 54.70588 19243 ft 395 kts 275°
2026-05-04 10:34 25.20293 54.67548 19818 ft 398 kts 274°
2026-05-04 10:34 25.20475 54.64492 20388 ft 401 kts 274°
2026-05-04 10:34 25.20657 54.61404 20952 ft 404 kts 274°
2026-05-04 10:35 25.20837 54.58303 21510 ft 407 kts 274°
2026-05-04 10:35 25.21021 54.55171 22067 ft 410 kts 274°
2026-05-04 10:35 25.21401 54.52087 22594 ft 413 kts 281°
2026-05-04 10:35 25.22039 54.48982 23115 ft 416 kts 283°
2026-05-04 10:36 25.22795 54.45879 23563 ft 420 kts 284°
2026-05-04 10:36 25.23606 54.42769 24044 ft 422 kts 285°
2026-05-04 10:36 25.24356 54.39944 24502 ft 422 kts 285°
2026-05-04 10:36 25.24480 54.39475 24585 ft 423 kts 285°
2026-05-04 10:37 25.25301 54.36352 25113 ft 422 kts 285°
2026-05-04 10:37 25.26107 54.33235 25572 ft 424 kts 284°
2026-05-04 10:37 25.26899 54.30129 25734 ft 427 kts 284°
2026-05-04 10:37 25.27700 54.26942 25771 ft 434 kts 284°
2026-05-04 10:39 25.32390 54.07498 25758 ft 436 kts 282°
2026-05-04 10:39 25.33064 54.04231 25759 ft 436 kts 282°
2026-05-04 10:39 25.33727 54.00956 25768 ft 436 kts 282°
2026-05-04 10:40 25.34385 53.97727 25757 ft 437 kts 281°
2026-05-04 10:40 25.35058 53.94458 25767 ft 437 kts 282°
2026-05-04 10:40 25.35740 53.91177 25767 ft 437 kts 282°
2026-05-04 10:40 25.36427 53.87900 25759 ft 437 kts 282°
2026-05-04 10:41 25.37115 53.84630 25761 ft 436 kts 282°
2026-05-04 10:41 25.37804 53.81373 25765 ft 435 kts 282°
2026-05-04 10:41 25.38492 53.78114 25766 ft 435 kts 282°
2026-05-04 10:41 25.39176 53.74857 25762 ft 435 kts 282°
2026-05-04 10:42 25.39861 53.71592 25770 ft 435 kts 282°
2026-05-04 10:42 25.40534 53.68375 25769 ft 436 kts 282°
2026-05-04 10:42 25.41217 53.65112 25769 ft 436 kts 282°
2026-05-04 10:42 25.41677 53.62909 25769 ft 436 kts 282°
2026-05-04 10:43 25.42350 53.59687 25751 ft 436 kts 282°
2026-05-04 10:44 25.47321 53.35768 25760 ft 435 kts 282°
2026-05-04 10:45 25.47995 53.32509 25771 ft 434 kts 282°
2026-05-04 10:45 25.48666 53.29257 25763 ft 434 kts 282°
2026-05-04 10:45 25.49111 53.27102 25765 ft 434 kts 282°
2026-05-04 10:45 25.49782 53.23848 25767 ft 434 kts 281°
2026-05-04 10:46 25.50681 53.19497 25760 ft 434 kts 281°
2026-05-04 10:46 25.51124 53.17341 25767 ft 434 kts 281°
2026-05-04 10:46 25.51791 53.14081 25765 ft 434 kts 281°
2026-05-04 10:46 25.52456 53.10823 25773 ft 434 kts 281°
2026-05-04 10:47 25.53121 53.07561 25764 ft 434 kts 281°
2026-05-04 10:47 25.54001 53.03247 25768 ft 434 kts 281°
2026-05-04 10:47 25.54666 52.99984 25762 ft 434 kts 281°
2026-05-04 10:47 25.55106 52.97822 25776 ft 434 kts 281°
2026-05-04 10:49 25.63549 52.76424 25780 ft 437 kts 296°
2026-05-04 10:49 25.65010 52.73469 25774 ft 437 kts 296°
2026-05-04 10:50 25.66465 52.70511 25778 ft 438 kts 296°
2026-05-04 10:51 25.76546 52.49771 25424 ft 433 kts 296°
2026-05-04 10:52 25.77947 52.46826 24909 ft 429 kts 295°
2026-05-04 10:52 25.79308 52.43899 24425 ft 424 kts 295°
2026-05-04 10:52 25.80642 52.41002 24007 ft 419 kts 295°
2026-05-04 10:54 25.91328 52.21843 23774 ft 423 kts 309°
2026-05-04 10:54 25.93313 52.19429 23773 ft 424 kts 309°
2026-05-04 10:56 26.07314 52.02622 23212 ft 422 kts 309°
2026-05-04 10:56 26.09297 52.00220 22951 ft 420 kts 309°
2026-05-04 10:56 26.11241 51.97861 22695 ft 418 kts 309°
2026-05-04 10:57 26.13203 51.95480 22428 ft 417 kts 309°
2026-05-04 10:57 26.15157 51.93106 22165 ft 415 kts 310°
2026-05-04 10:57 26.17103 51.90743 21940 ft 413 kts 310°
2026-05-04 10:57 26.19042 51.88387 21683 ft 412 kts 310°
2026-05-04 10:58 26.20973 51.86040 21426 ft 410 kts 310°
2026-05-04 10:58 26.22895 51.83704 21180 ft 408 kts 310°
2026-05-04 10:58 26.24692 51.81276 20940 ft 404 kts 302°
2026-05-04 10:58 26.26149 51.78622 20700 ft 401 kts 297°
2026-05-04 10:59 26.27456 51.75937 20462 ft 399 kts 295°
2026-05-04 10:59 26.28709 51.73187 20222 ft 397 kts 294°
2026-05-04 10:59 26.29928 51.70425 19754 ft 397 kts 294°
2026-05-04 10:59 26.31130 51.67670 19267 ft 393 kts 294°
2026-05-04 11:00 26.32322 51.64945 18787 ft 389 kts 294°
2026-05-04 11:01 26.39854 51.46255 15219 ft 367 kts 289°
2026-05-04 11:02 26.40711 51.43580 14714 ft 365 kts 289°
2026-05-04 11:02 26.41553 51.40923 14243 ft 362 kts 289°
2026-05-04 11:05 26.38352 51.06022 9063 ft 289 kts 251°
2026-05-04 11:06 26.37584 51.03954 8635 ft 289 kts 251°
2026-05-04 11:06 26.36820 51.01894 8320 ft 286 kts 251°
2026-05-04 11:06 26.36062 50.99857 8018 ft 284 kts 251°
2026-05-04 11:06 26.35310 50.97839 7792 ft 277 kts 251°
2026-05-04 11:08 26.37111 50.86032 6127 ft 232 kts 266°
2026-05-04 11:10 26.27344 50.83996 3782 ft 266 kts 124°
2026-05-04 11:12 26.17596 50.87618 1706 ft 257 kts 214°
2026-05-04 11:12 26.16398 50.86234 1544 ft 241 kts 245°
2026-05-04 11:12 26.16061 50.84500 1387 ft 221 kts 275°
2026-05-04 11:12 26.16305 50.82951 1450 ft 198 kts 290°
2026-05-04 11:13 26.16792 50.81535 1491 ft 194 kts 300°
2026-05-04 11:13 26.17468 50.80244 1492 ft 194 kts 305°
2026-05-04 11:13 26.18179 50.78962 1497 ft 196 kts 304°
2026-05-04 11:13 26.18906 50.77674 1491 ft 195 kts 306°
2026-05-04 11:14 26.19153 50.77244 1491 ft 194 kts 306°
2026-05-04 11:14 26.20535 50.74806 1509 ft 180 kts 305°
2026-05-04 11:16 26.25221 50.66577 422 ft 134 kts 304°
2026-05-04 11:16 26.25722 50.65715 264 ft 132 kts 304°
2026-05-04 11:16 26.26226 50.64847 67 ft 133 kts 304°
2026-05-04 11:17 26.26705 50.64021 21 ft 104 kts 303°
2026-05-04 11:17 26.26934 50.63621 19 ft 19 kts 302°
2026-05-04 11:19 26.26727 50.63413 30 ft 3 kts 120°
2026-05-04 11:19 26.26712 50.63426 30 ft 3 kts 159°
2026-05-04 11:19 26.26686 50.63419 28 ft 5 kts 205°
2026-05-04 11:19 26.26646 50.63393 28 ft 8 kts 211°
2026-05-04 11:20 26.26631 50.63383 29 ft 0 kts 211°